Weather Roundup
Issued by NWS Springfield, MO

Home | Current Version | Previous Version | Text Only | Print | Product List | Glossary On
Versions: 1 2 3 4 5 6 7 8 9 10 11 12 13 14 15 16 17 18 19 20 21 22 23 24 25 26 27 28 29 30 31 32 33 34 35 36 37 38 39 40 41 42 43 44 45 46 47 48 49 50
000
NZUS99 KSGF 300857
HRRSGF

HOURLY WEATHER
NATIONAL WEATHER SERVICE SPRINGFIELD MO
400 AM CDT TUE AUG 30 2016

......SGF CWA......

CITY           SKY/WX    TMP DP  RH WIND       PRES   REMARKS
SPRINGFIELD    CLEAR     74  70  87 CALM      30.14S
JOPLIN         CLEAR     71  69  93 E3        30.13S
WEST PLAINS    MOCLDY    72  69  90 CALM      30.15F
ROLLA          CLEAR     71  70  96 SE3       30.13F

......SURROUNDING SGF CWA......

CITY           SKY/WX    TMP DP  RH WIND       PRES   REMARKS
CHANUTE        CLEAR     72  71  97 CALM      30.12F
PARSONS        CLEAR     70  69  97 CALM      30.12F
COFFEYVILLE    CLEAR     71  70  96 CALM      30.11S
EMPORIA        MOCLDY    73  71  93 NE6       30.14S
HARRISON AR    CLEAR     69  68  96 CALM      30.14F

......KANSAS AND MISSOURI......

CITY           SKY/WX    TMP DP  RH WIND       PRES   REMARKS
KANSAS CTY INT LGT RAIN  72  69  90 NE13      30.17F
DOWNTOWN KC    LGT RAIN  73  70  88 E5        30.16S
SEDALIA        CLOUDY    74  71  91 SE3       30.14F FOG
ST JOSEPH      MOCLDY    70  69  97 N5        30.15F
ST LOUIS       CLEAR     78  72  81 E3        30.13F
WICHITA        MOCLDY    74  70  87 NW5       30.14S
TOPEKA         CLOUDY    72  68  87 E6        30.15S
OLATHE         TSTM      69  68  96 N15       30.16F FOG

......TENNESSEE......

CITY           SKY/WX    TMP DP  RH WIND       PRES   REMARKS
MEMPHIS        NOT AVBL
NASHVILLE      CLEAR     76  71  85 CALM      30.09F

......ARKANSAS.......

CITY           SKY/WX    TMP DP  RH WIND       PRES   REMARKS
FAYETTEVILLE   CLEAR     70  70 100 E3        30.12F
FT SMITH       CLEAR     73  69  87 CALM      30.07F
LITTLE ROCK    CLEAR     79  73  82 N6        30.04F

......OKLAHOMA.......

CITY           SKY/WX    TMP DP  RH WIND       PRES   REMARKS
TULSA          PTCLDY    72  71  97 W3        30.09F
PONCA CITY     CLOUDY    72  68  87 N3        30.10F
MCALESTER      PTCLDY    72  68  87 CALM      30.08F
OKLAHOMA CITY  PTCLDY    73  69  87 E5        30.10F

......IOWA............

CITY           SKY/WX    TMP DP  RH WIND       PRES   REMARKS
DES MOINES     NOT AVBL
QUAD CITIES    CLOUDY    71  68  90 E5        30.15R

......ILLINOIS........

CITY           SKY/WX    TMP DP  RH WIND       PRES   REMARKS
QUINCY         NOT AVBL
CHICAGO        CLOUDY    71  71 100 N3        30.14F FOG




USA.gov is the U.S. government's official web portal to all federal, state and local government web resources and services.